Location: Haliburton Scout Reserve
(45.0900°N, 78.3200°W)
Time: 02:25:04
(UTC-04:00)

ESTCUBE 1 - Pass Details

Date: 21 May 2022
Orbit: 644 x 659 km, 97.9° (Epoch: 27 June)

Event Time Altitude Azimuth Distance (km) Brightness Sun altitude
Exits shadow 21:44:18 - 95° (E) 2,358 ? -9.6°
Reaches altitude 10° 21:45:49 10° 79° (ENE) 2,067 ? -9.8°
Maximum altitude 21:47:21 12° 58° (ENE) 1,957 ? -10.0°
Drops below altitude 10° 21:48:54 10° 38° (NE) 2,069 ? -10.2°
Sets 21:52:34 0° 7° (N) 2,982 ? -10.7°
